Regional Weather Roundup
Issued by NWS

Home | Current Version | Previous Version | Text Only | Print | Product List | Glossary Off
Versions: 1 2 3 4 5 6 7 8 9 10 11 12 13 14 15 16 17 18 19 20 21 22 23 24 25 26 27 28 29 30 31 32 33 34 35 36 37 38 39 40 41 42 43 44 45 46 47 48 49 50

000
ASUS45 KBOI 290610
RWRID
WEATHER ROUNDUP FOR IDAHO
NATIONAL WEATHER SERVICE BOISE ID
1200 AM MDT TUE JUL 29 2014

NOTE: "FAIR" INDICATES FEW OR NO CLOUDS BELOW 12000 FEET
WITH NO SIGNIFICANT WEATHER AND/OR OBSTRUCTIONS TO VISIBILITY

IDZ012-014-290700-
SOUTHWEST IDAHO


CITY           SKY/WX    TMP DP  RH WIND       PRES   REMARKS
BOISE          PTCLDY    84  48  28 SE8       30.04S
CALDWELL       PTCLDY    73  52  46 N3        30.04S
MOUNTAIN HOME  MOCLDY    78  44  30 E7        30.05F
$$

IDZ016-017-290700-
SOUTHCENTRAL IDAHO


CITY           SKY/WX    TMP DP  RH WIND       PRES   REMARKS
BURLEY         CLOUDY    72  57  59 SE16      30.18F
JEROME         MOCLDY    72  55  55 E12       30.17S
TWIN FALLS     MOCLDY    73  56  54 E12       30.16R
$$

IDZ019>023-290700-
SOUTHEAST IDAHO


CITY           SKY/WX    TMP DP  RH WIND       PRES   REMARKS
IDAHO FALLS    CLOUDY    69  58  67 S8        30.27F
POCATELLO      CLOUDY    65  61  87 SE8       30.26F
REXBURG        CLOUDY    67  51  56 S6        30.27R
$$

IDZ006-010-011-018-031-032-290700-
CENTRAL IDAHO MOUNTAINS


CITY           SKY/WX    TMP DP  RH WIND       PRES   REMARKS
MCCALL         CLOUDY    69  49  48 CALM      30.23F
HAILEY         CLOUDY    68  50  52 S9G16     30.30R
STANLEY          N/A     53  47  79 CALM      30.39R
SALMON         PTCLDY    66  48  52 CALM      30.19R
CHALLIS        MOCLDY    68  46  45 CALM      30.26R
$$

IDZ002-004-006-007-026-290700-
NORTHERN IDAHO


CITY           SKY/WX    TMP DP  RH WIND       PRES   REMARKS
LEWISTON       CLEAR     85  39  19 SW7       29.98R
LOWELL           N/A     70  60  70 N3        30.02R
COEUR D`ALENE  CLEAR     70  54  56 SE6       30.05S
MULLAN PASS    CLEAR     68  34  28 VRB3      30.33S
$$



USA.gov is the U.S. government's official web portal to all federal, state and local government web resources and services.